Weather History for Pine Bluff, AR

Change the Weather History Date:

Monday, November 19, 2012

  Actual Average Record
Temperature  
Mean Temperature 52 °F 52 °F  
Max Temperature 68 °F 62 °F 85 °F (1942)
Min Temperature 36 °F 42 °F 14 °F (1903)
Degree Days  
Heating Degree Days 13 13  
Month to date heating degree days 240 198  
Since 1 July heating degree days 413 335  
Cooling Degree Days 0 0  
Month to date cooling degree days 5 10  
Year to date cooling degree days 2383 2129  
Growing Degree Days 1 (Base 50)    
Moisture  
Dew Point 41 °F    
Average Humidity 69    
Maximum Humidity 100    
Minimum Humidity 37    
Precipitation  
Precipitation 0.00 in 0.17 in 3.12 in (1988)
Month to date precipitation 1.80 2.95  
Year to date precipitation 40.09 43.83  
Snow  
Snow 0.00 in 0.00 in T in (1991)
Month to date snowfall 0.0 0.0  
Since 1 July snowfall 0.0 0.0  
Since 1 September snowfall 0.0 0.0  
Snow Depth 0.00 in    
Sea Level Pressure  
Sea Level Pressure 30.26 in    
Wind  
Wind Speed 2 mph (South)    
Max Wind Speed 8 mph    
Max Gust Speed 10 mph    
Visibility 10 miles    
Events      
T = Trace of Precipitation, MM = Missing Value Source: NWS Daily Summary

Daily Weather History Graph

Daily Weather History Graph

Search for Another Location

Airport:

Trip Planner

Search our weather history database for the weather conditions in past years. The results will help you decide how hot, cold, wet, or windy it might be!

Date:

Astronomy

Nov. 19, 2012 Rise Set
Actual Time 6:44 AM CST 5:01 PM CST
Civil Twilight 6:17 AM CST 5:28 PM CST
Nautical Twilight 5:47 AM CST 5:58 PM CST
Astronomical Twilight 5:17 AM CST 6:28 PM CST
Moon 11:53 AM CST (11/19) 11:21 PM CST (11/19)
Length of Visible Light 11h 10m
Length of Day
10h 16m
Waxing Crescent, 41% of the Moon is Illuminated
Nov 19
Waxing Crescent
Nov 20
First Quarter
Nov 28
Full
Dec 6
Last Quarter
Dec 13
New

Hourly Weather History & Observations

Time (CST) Temp. Windchill Dew Point Humidity Pressure Visibility Wind Dir Wind Speed Gust Speed Precip Events Conditions
12:53 AM 39.0 °F 36.8 °F 37.0 °F 93% 30.31 in 10.0 mi West 3.5 mph - N/A   Clear
1:53 AM 39.0 °F - 37.0 °F 93% 30.30 in 10.0 mi Calm Calm - N/A   Clear
2:53 AM 37.0 °F - 35.1 °F 93% 30.29 in 10.0 mi Calm Calm - N/A   Clear
3:53 AM 36.0 °F - 35.1 °F 97% 30.29 in 10.0 mi Calm Calm - N/A   Clear
4:53 AM 36.0 °F - 35.1 °F 97% 30.29 in 10.0 mi Calm Calm - N/A   Clear
5:53 AM 36.0 °F - 34.0 °F 93% 30.30 in 10.0 mi Calm Calm - N/A   Clear
6:53 AM 37.0 °F - 35.1 °F 93% 30.30 in 10.0 mi Calm Calm - N/A   Clear
7:53 AM 42.1 °F - 39.9 °F 92% 30.30 in 10.0 mi Calm Calm - N/A   Clear
8:53 AM 48.9 °F - 42.1 °F 77% 30.32 in 10.0 mi SSE 3.5 mph - N/A   Clear
9:53 AM 55.0 °F - 43.0 °F 64% 30.33 in 10.0 mi South 4.6 mph - N/A   Scattered Clouds
10:53 AM 61.0 °F - 41.0 °F 48% 30.32 in 10.0 mi South 5.8 mph - N/A   Clear
11:53 AM 62.1 °F - 42.1 °F 48% 30.29 in 10.0 mi South 5.8 mph - N/A   Mostly Cloudy
12:53 PM 64.9 °F - 41.0 °F 42% 30.25 in 10.0 mi South 6.9 mph - N/A   Clear
1:53 PM 66.0 °F - 39.9 °F 38% 30.22 in 10.0 mi South 3.5 mph - N/A   Clear
2:53 PM 66.9 °F - 39.9 °F 37% 30.21 in 10.0 mi SSE 3.5 mph - N/A   Partly Cloudy
3:53 PM 66.0 °F - 39.9 °F 38% 30.21 in 10.0 mi Calm Calm - N/A   Partly Cloudy
4:53 PM 62.1 °F - 45.0 °F 53% 30.20 in 10.0 mi ESE 3.5 mph - N/A   Overcast
5:53 PM 57.9 °F - 48.9 °F 72% 30.22 in 10.0 mi SE 3.5 mph - N/A   Overcast
6:53 PM 57.9 °F - 48.0 °F 70% 30.22 in 10.0 mi Calm Calm - N/A   Overcast
7:53 PM 57.0 °F - 46.9 °F 69% 30.21 in 10.0 mi SSE 3.5 mph - N/A   Overcast
8:53 PM 55.0 °F - 45.0 °F 69% 30.20 in 10.0 mi South 3.5 mph - N/A   Partly Cloudy
9:53 PM 54.0 °F - 45.0 °F 72% 30.21 in 10.0 mi South 3.5 mph - N/A   Overcast
10:53 PM 53.1 °F - 48.0 °F 83% 30.20 in 10.0 mi Calm Calm - N/A   Mostly Cloudy
11:53 PM 53.1 °F - 48.0 °F 83% 30.19 in 10.0 mi Calm Calm - N/A   Overcast